Location: Newark
(13.8117°N, 3.6025°W)
Time: 23:25:46
(UTC+00:00)

Vanguard 2 - Pass Details

Date: 27 August 2019
Orbit: 554 x 2937 km, 32.9° (Epoch: 22 September)

Event Time Altitude Azimuth Distance (km) Brightness Sun altitude
Rises 17:12:47 0° 304° (NW) 4,514 12.6 17.6°
Reaches altitude 10° 17:15:19 10° 306° (NW) 3,797 12.3 17.0°
Maximum altitude 17:26:02 79° 32° (NNE) 2,257 10.1 14.4°
Drops below altitude 10° 17:42:49 10° 119° (ESE) 5,656 11.4 10.3°
Sets 17:47:32 0° 120° (ESE) 6,767 11.8 9.2°
